Mona Airport

Jump to: basic info | weather | comments

Related pages: nearby airports | nearby navaids

Basic information (top)

Location: lon 18.075300, lat -67.931000, elev 1 ft / 0 m msl
Status: small_airport

Weather (top)

Current conditions for Punta Cana International Airport 38nm (71km) NW (rec'd 2015/02/28 06:00Z):

MDPC 280600Z 11010KT 9999 SCT018 BKN080 26/21 Q1018

Airport forecast for Punta Cana International Airport 38nm (71km) NW (rec'd 2015/02/23 22:36Z):

TAF MDPC 232200Z 2322/2424 09008KT 9999 FEW020 PROB30 2404/2408 8000 SH SCT018 SCT070

Latest comments (top)

No comments yet for Mona Airport

More... (top)

See also NOTAMs and nearby airports and navaids, or visit the Mona Airport page at the main OurAirports website..